[[{"header":{"parameterUnit":"m.s-1","parameterCategory":1,"la1":30.2991,"la2":30.254,"lo1":-89.0895,"lo2":-89.0444,"dy":0.0017,"dx":0.0017,"nx":28,"ny":28,"refTime":"2024-08-23T21:00:00:Z","depth":0,"parameterNumber":2,"parameterNumberName":"U-component_of_WINDS"},"data":[0,0,0,0,0,0,0,0,0,0,0,0,0,0,0,0,0,0,0,0,0,0,0,0,0,0,0,0,0,0,0,0,0,0,0,0,0,0,0,0,0,0,0,0,0,0,0,0,0,0,0,0,0,0,0,0,0,0,-5.0901,-5.0901,0,-5.0946,-5.0947,-5.0947,-5.0754,-5.0748,-5.0743,-5.0737,-5.0787,-5.0793,-5.08,0,0,0,0,0,0,0,0,0,0,0,0,0,-5.0647,-5.0653,-5.09,-5.0901,-5.0902,-5.0946,-5.0947,-5.0947,-5.0755,-5.0748,-5.0741,-5.0735,-5.0785,-5.0793,-5.0801,0,0,0,0,0,0,0,0,0,0,0,0,0,-5.0732,-5.0655,-5.09,-5.0811,-5.0803,-5.0946,-5.0947,-5.0947,-5.0757,-5.0748,-5.074,-5.0732,-5.0782,-5.0792,-5.0802,-5.1033,0,0,-5.0832,-5.0836,0,0,0,0,0,0,0,0,-5.0727,-5.0741,-5.0824,-5.0817,-5.0809,-5.0836,-5.0875,-5.0976,-5.0759,-5.0775,-5.0737,-5.0727,-5.081,-5.0817,-5.0845,-5.1036,-5.1038,-5.0833,-5.0839,-5.0843,-5.0846,0,0,0,0,0,0,0,-5.0722,-5.0738,-5.0918,-5.0825,-5.0816,-5.0769,-5.0771,-5.0894,-5.084,-5.0772,-5.0759,-5.0766,-5.0805,-5.0836,-5.0844,-5.1038,-5.0833,-5.0841,-5.0848,-5.0851,-5.1419,-5.1428,0,0,0,0,0,0,-5.0728,-5.0735,-5.0917,-5.092,-5.0746,-5.078,-5.0783,-5.0836,-5.0838,-5.083,-5.0774,-5.0757,-5.0823,-5.0833,-5.0845,-5.1115,-5.0843,-5.0852,-5.0858,-5.141,-5.1421,-5.1431,0,0,0,0,0,0,-5.0723,-5.0746,-5.0915,-5.0824,-5.0841,-5.0794,-5.0854,-5.0841,-5.0872,-5.0839,-5.0828,-5.0815,-5.0817,-5.0832,-5.0987,-5.1114,-5.0857,-5.0866,-5.1399,-5.1414,-5.1426,-5.1658,0,0,0,0,0,0,-5.0716,-5.0745,-5.0833,-5.0827,-5.0847,-5.1057,-5.0862,-5.0848,-5.0889,-5.0868,-5.0875,-5.0868,-5.0811,-5.0974,-5.0997,-5.1123,-5.0874,-5.1388,-5.1406,-5.1422,-5.1639,-5.1678,-5.1712,0,0,0,0,0,-5.0708,-5.0897,-5.0838,-5.0861,-5.0956,-5.1065,-5.1076,-5.1006,-5.09,-5.0988,-5.0966,-5.0868,-5.1097,-5.0991,-5.1016,-5.1147,-5.138,-5.1401,-5.1421,-5.1623,-5.167,-5.1711,0,0,0,0,0,0,-5.0921,-5.0895,-5.0829,-5.1022,-5.1047,-5.1032,-5.114,-5.1059,-5.1116,-5.1094,-5.1005,-5.1008,-5.118,-5.1179,-5.1062,-5.137,-5.122,-5.1246,-5.1365,-5.141,-5.1446,-5.1442,-5.0882,0,0,0,0,0,-5.099,-5.108,-5.1053,-5.1226,-5.1241,-5.1189,-5.1234,-5.1178,-5.12,-5.121,-5.12,-5.1226,-5.1303,-5.1356,-5.1426,-5.1638,-5.1636,-5.174,-5.1776,-5.1806,-5.183,-5.1941,-5.1986,-5.1499,-5.1499,-5.1498,0,0,-5.1134,-5.1131,-5.1194,-5.1268,-5.1281,-5.1376,-5.1199,-5.1308,-5.1378,-5.1227,-5.1373,-5.1366,-5.1389,-5.1574,-5.1655,-5.1579,-5.1964,-5.1832,-5.1857,-5.1864,-5.1967,-5.2013,-5.2054,-5.1513,-5.151,-5.1508,0,0,-5.1445,-5.1452,-5.1596,-5.1612,-5.1632,-5.1596,-5.1631,-5.1628,-5.1617,-5.1762,-5.165,-5.1732,-5.1868,-5.1888,-5.1917,-5.2234,-5.2145,-5.2259,-5.2449,-5.2558,-5.2596,-5.263,-5.2742,-5.2784,-5.2283,-5.2284,-5.2284,0,-5.1622,-5.176,-5.1681,-5.1796,-5.1832,-5.1698,-5.1843,-5.1862,-5.1906,-5.1933,-5.1847,-5.2013,-5.2019,-5.2206,-5.2283,-5.2311,-5.2347,-5.2258,-5.2597,-5.263,-5.266,-5.2766,-5.2809,-5.2297,-5.2296,-5.2294,-5.2293,0,-5.1976,-5.2074,-5.2188,-5.2231,-5.228,-5.241,-5.235,-5.2408,-5.2348,-5.2321,-5.2469,-5.2472,-5.2539,-5.2579,-5.2521,-5.2757,-5.2709,-5.2612,-5.2458,-5.2722,-5.282,-5.286,-5.2317,-5.2312,-5.2308,-5.2305,0,0,-5.2424,-5.2419,-5.2463,-5.248,-5.2492,-5.2566,-5.269,-5.2754,-5.2806,-5.284,-5.2941,-5.3058,-5.2967,-5.2999,-5.2943,-5.3038,-5.3288,-5.2928,-5.2927,-5.2995,-5.3547,-5.362,-5.3669,-5.3229,-5.3236,-5.3242,-5.3545,0,-5.2728,-5.2938,-5.2869,-5.3082,-5.3171,-5.3044,-5.3151,-5.3171,-5.3148,-5.3221,-5.3196,-5.328,-5.3154,-5.3172,-5.3261,-5.3239,-5.3398,-5.3216,-5.3322,-5.3327,-5.332,-5.372,-5.3798,-5.4083,-5.3583,-5.3589,-5.3594,0,-5.3111,-5.3159,-5.3381,-5.3376,-5.341,-5.3509,-5.3561,-5.3631,-5.365,-5.3627,-5.3663,-5.3586,-5.3706,-5.3553,-5.3717,-5.3595,-5.3634,-5.363,-5.3639,-5.3647,-5.3477,-5.3738,-5.4173,-5.4216,-5.3654,-5.3649,-5.3645,0,-5.3414,-5.3534,-5.3681,-5.37,-5.3699,-5.377,-5.3773,-5.3783,-5.3826,-5.3872,-5.3898,-5.3959,-5.3992,-5.404,-5.3981,-5.3875,-5.4154,-5.3996,-5.4138,-5.414,-5.4203,-5.42,-5.465,-5.423,-5.4229,-5.4228,-5.4228,0,-5.3761,-5.3902,-5.3817,-5.3908,-5.4062,-5.398,-5.4135,-5.4123,-5.4133,-5.4219,-5.4114,-5.4197,-5.4114,-5.419,-5.4145,-5.4287,-5.4303,-5.4288,-5.4274,-5.4297,-5.4299,-5.4322,-5.43,-5.424,-5.4237,-5.4235,-5.4233,0,-5.4126,-5.4075,-5.4227,-5.4212,-5.4212,-5.4326,-5.4313,-5.4396,-5.4366,-5.4476,-5.4498,-5.4451,-5.4534,-5.4479,-5.4565,-5.4534,-5.472,-5.4679,-5.4714,-5.4702,-5.4847,-5.4834,-5.5328,-5.5388,-5.493,-5.4934,-5.4938,0,-5.435,-5.4455,-5.4451,-5.4501,-5.451,-5.4592,-5.4634,-5.4558,-5.4606,-5.4634,-5.4715,-5.4789,-5.4844,-5.4983,-5.4957,-5.5021,-5.498,-5.5149,-5.4989,-5.5009,-5.4982,-5.4976,-5.4986,-5.5181,-5.5186,-5.5191,-5.5194,0,-5.4754,-5.4723,-5.4787,-5.4843,-5.4896,-5.4937,-5.4969,-5.5016,-5.4939,-5.4999,-5.5082,-5.5125,-5.521,-5.5285,-5.5338,-5.5341,-5.5256,-5.5245,-5.5281,-5.5305,-5.532,-5.5313,-5.4801,-5.5234,-5.523,-5.5227,-5.5225,-5.5223,-5.5054,-5.514,-5.5151,-5.5226,-5.5241,-5.5274,-5.5351,-5.5329,-5.5397,-5.5459,-5.5411,-5.551,-5.5524,-5.5586,-5.56,-5.5676,-5.5608,-5.5661,-5.5674,-5.5688,-5.5708,-5.5309,-5.5686,-5.5685,-5.5684,-5.5683,-5.5682,0,-5.5451,-5.5451,-5.552,-5.5568,-5.5627,-5.554,-5.557,-5.5626,-5.5714,-5.5734,-5.579,-5.5886,-5.5957,-5.5936,-5.6,-5.6065,-5.6027,-5.6084,-5.6078,-5.608,-5.5766,-5.5728,-5.6113,-5.6113,-5.6113,-5.6113,-5.6113,-5.6113,-5.5664,-5.5805,-5.5776,-5.5924,-5.5922,-5.6018,-5.6043,-5.6071,-5.6087,-5.6198,-5.6256,-5.6241,-5.6245,-5.6308,-5.6369,-5.6361,-5.6389,-5.6461,-5.6439,-5.6145,-5.6103,-5.6062,-5.6026,-5.6468,-5.6468,-5.6746,-5.6749,-5.6751]},{"header":{"parameterUnit":"m.s-1","parameterCategory":1,"la1":30.2991,"la2":30.254,"lo1":-89.0895,"lo2":-89.0444,"dy":0.0017,"dx":0.0017,"nx":28,"ny":28,"refTime":"2024-08-23T21:00:00:Z","depth":0,"parameterNumber":3,"parameterNumberName":"V-component_of_WINDS"},"data":[0,0,0,0,0,0,0,0,0,0,0,0,0,0,0,0,0,0,0,0,0,0,0,0,0,0,0,0,0,0,0,0,0,0,0,0,0,0,0,0,0,0,0,0,0,0,0,0,0,0,0,0,0,0,0,0,0,0,-1.7132,-1.7133,0,-1.7177,-1.7177,-1.7178,-1.7207,-1.7207,-1.7208,-1.7208,-1.7252,-1.7253,-1.7254,0,0,0,0,0,0,0,0,0,0,0,0,0,-1.7069,-1.707,-1.7132,-1.7133,-1.7133,-1.7177,-1.7177,-1.7178,-1.7207,-1.7207,-1.7208,-1.7208,-1.7252,-1.7253,-1.7254,0,0,0,0,0,0,0,0,0,0,0,0,0,-1.7103,-1.707,-1.7132,-1.7153,-1.7155,-1.7177,-1.7177,-1.7178,-1.7207,-1.7207,-1.7208,-1.7208,-1.7252,-1.7253,-1.7255,-1.7258,0,0,-1.7259,-1.726,0,0,0,0,0,0,0,0,-1.7101,-1.7105,-1.7149,-1.7152,-1.7154,-1.7187,-1.7172,-1.7205,-1.7207,-1.7187,-1.7208,-1.7208,-1.723,-1.7233,-1.7241,-1.726,-1.7262,-1.7259,-1.726,-1.7261,-1.7261,0,0,0,0,0,0,0,-1.7099,-1.7104,-1.715,-1.715,-1.7153,-1.7159,-1.7164,-1.7178,-1.7207,-1.7189,-1.7191,-1.7196,-1.7232,-1.724,-1.7242,-1.7263,-1.7259,-1.7261,-1.7262,-1.7262,-1.7285,-1.7284,0,0,0,0,0,0,-1.7093,-1.7102,-1.7148,-1.7151,-1.7128,-1.716,-1.7166,-1.7176,-1.7207,-1.7211,-1.7196,-1.7197,-1.7237,-1.7241,-1.7244,-1.7249,-1.7261,-1.7262,-1.7263,-1.7285,-1.7285,-1.7284,0,0,0,0,0,0,-1.7092,-1.7097,-1.7147,-1.7127,-1.7134,-1.7161,-1.7172,-1.7177,-1.7185,-1.7212,-1.7217,-1.7199,-1.7237,-1.7242,-1.7254,-1.7251,-1.7263,-1.7264,-1.7285,-1.7285,-1.7284,-1.726,0,0,0,0,0,0,-1.709,-1.7097,-1.7099,-1.7127,-1.7135,-1.7157,-1.7172,-1.7177,-1.7188,-1.719,-1.7216,-1.7221,-1.7238,-1.7252,-1.7255,-1.7253,-1.7266,-1.7286,-1.7285,-1.7285,-1.7261,-1.7258,-1.7256,0,0,0,0,0,-1.7088,-1.7091,-1.7099,-1.7105,-1.7138,-1.7156,-1.7161,-1.7181,-1.7187,-1.7189,-1.7206,-1.722,-1.7251,-1.7253,-1.7257,-1.7255,-1.7286,-1.7285,-1.7285,-1.7262,-1.7259,-1.7256,0,0,0,0,0,0,-1.7062,-1.7095,-1.7105,-1.7117,-1.7133,-1.7161,-1.7165,-1.7177,-1.7192,-1.7194,-1.7218,-1.7223,-1.7232,-1.7245,-1.7247,-1.7259,-1.727,-1.727,-1.7251,-1.7248,-1.7246,-1.7242,-1.7267,0,0,0,0,0,-1.7058,-1.707,-1.7098,-1.7106,-1.7114,-1.7138,-1.7146,-1.716,-1.7178,-1.7185,-1.7203,-1.722,-1.7233,-1.7241,-1.7255,-1.7263,-1.7268,-1.7263,-1.7261,-1.7259,-1.7259,-1.7262,-1.7259,-1.7282,-1.7282,-1.7282,0,0,-1.705,-1.7069,-1.7075,-1.7101,-1.7116,-1.7127,-1.7144,-1.7155,-1.7163,-1.7187,-1.7199,-1.7213,-1.7233,-1.7242,-1.7247,-1.7253,-1.7254,-1.7258,-1.7256,-1.7257,-1.7261,-1.7258,-1.7257,-1.7281,-1.7282,-1.7282,0,0,-1.704,-1.7056,-1.7064,-1.7078,-1.7099,-1.7115,-1.7116,-1.7142,-1.7151,-1.7164,-1.7181,-1.7191,-1.7214,-1.7227,-1.7236,-1.7228,-1.7241,-1.7232,-1.722,-1.7222,-1.7221,-1.7219,-1.7215,-1.7213,-1.7232,-1.7232,-1.7232,0,-1.7027,-1.7045,-1.7066,-1.7076,-1.7086,-1.7108,-1.7114,-1.7127,-1.7152,-1.7158,-1.7164,-1.7191,-1.7207,-1.7218,-1.7216,-1.7223,-1.7225,-1.7229,-1.7219,-1.7218,-1.7217,-1.7213,-1.7211,-1.723,-1.723,-1.7231,-1.7231,0,-1.7027,-1.7039,-1.7042,-1.7065,-1.7076,-1.7084,-1.7105,-1.7113,-1.7125,-1.7139,-1.715,-1.7169,-1.7186,-1.719,-1.7202,-1.7202,-1.7205,-1.7215,-1.7226,-1.7213,-1.721,-1.7209,-1.7229,-1.7229,-1.7229,-1.723,0,0,-1.7004,-1.7037,-1.7038,-1.7047,-1.7071,-1.7081,-1.7089,-1.7106,-1.7111,-1.7127,-1.7133,-1.7151,-1.716,-1.717,-1.7184,-1.7186,-1.7177,-1.7196,-1.7196,-1.719,-1.7176,-1.7168,-1.7166,-1.7185,-1.7185,-1.7185,-1.7174,0,-1.6998,-1.7014,-1.7032,-1.7042,-1.7053,-1.7072,-1.7078,-1.7093,-1.7106,-1.7116,-1.713,-1.7142,-1.7153,-1.7159,-1.7162,-1.7177,-1.7174,-1.7178,-1.719,-1.719,-1.7184,-1.7164,-1.7156,-1.7145,-1.7173,-1.7172,-1.7172,0,-1.6993,-1.7007,-1.7017,-1.7038,-1.7043,-1.7049,-1.7064,-1.7074,-1.709,-1.7099,-1.711,-1.7124,-1.7132,-1.7142,-1.7152,-1.7155,-1.7161,-1.7168,-1.7168,-1.717,-1.718,-1.7164,-1.7142,-1.714,-1.7171,-1.7171,-1.7171,0,-1.6974,-1.6995,-1.7004,-1.7012,-1.7037,-1.704,-1.705,-1.7067,-1.7075,-1.7088,-1.7093,-1.7106,-1.7114,-1.7123,-1.714,-1.7146,-1.7148,-1.716,-1.7155,-1.7154,-1.7155,-1.7154,-1.7132,-1.7159,-1.7159,-1.7159,-1.7159,0,-1.6964,-1.697,-1.6995,-1.7001,-1.7006,-1.7026,-1.7031,-1.7043,-1.7057,-1.7064,-1.7081,-1.7087,-1.7109,-1.7118,-1.7131,-1.7136,-1.714,-1.7146,-1.715,-1.7145,-1.7143,-1.7148,-1.7149,-1.7159,-1.7159,-1.7159,-1.7159,0,-1.6945,-1.6962,-1.6972,-1.6994,-1.7,-1.7003,-1.7021,-1.7026,-1.7039,-1.7047,-1.705,-1.7071,-1.7081,-1.7098,-1.7114,-1.7123,-1.7125,-1.7132,-1.712,-1.7122,-1.7115,-1.7115,-1.7095,-1.7093,-1.7122,-1.7122,-1.7121,0,-1.6938,-1.6942,-1.6963,-1.6969,-1.6979,-1.6988,-1.6995,-1.7014,-1.7021,-1.7038,-1.7041,-1.7052,-1.7062,-1.7077,-1.7093,-1.7104,-1.711,-1.7102,-1.7112,-1.7106,-1.7108,-1.7108,-1.7107,-1.71,-1.7099,-1.7099,-1.7099,0,-1.6922,-1.693,-1.6941,-1.6953,-1.6961,-1.6972,-1.6984,-1.6987,-1.7008,-1.7015,-1.7025,-1.7032,-1.7047,-1.7058,-1.7071,-1.7081,-1.7092,-1.7095,-1.7095,-1.7089,-1.7082,-1.7084,-1.7113,-1.7096,-1.7096,-1.7096,-1.7097,-1.7097,-1.6908,-1.6912,-1.6927,-1.6937,-1.6947,-1.6957,-1.6962,-1.6975,-1.6984,-1.6997,-1.7007,-1.7016,-1.703,-1.7048,-1.7057,-1.7064,-1.7069,-1.7069,-1.7068,-1.7068,-1.7065,-1.7081,-1.7066,-1.7066,-1.7066,-1.7066,-1.7067,0,-1.6893,-1.6903,-1.6912,-1.6927,-1.6934,-1.6944,-1.6957,-1.6962,-1.697,-1.6981,-1.699,-1.7001,-1.701,-1.7026,-1.7036,-1.7038,-1.7043,-1.704,-1.704,-1.7041,-1.706,-1.7059,-1.7035,-1.7035,-1.7035,-1.7035,-1.7035,-1.7035,-1.6886,-1.6893,-1.6901,-1.6912,-1.6922,-1.693,-1.6936,-1.6945,-1.6954,-1.6964,-1.6972,-1.6982,-1.6994,-1.7005,-1.7014,-1.7018,-1.702,-1.7015,-1.702,-1.7037,-1.704,-1.7043,-1.7042,-1.7015,-1.7015,-1.7001,-1.7001,-1.7001]}]]